| time (UTC) | temp F | wind direction | speed knots | gust knots | rain 1hr in | rain 24hr in | rain mn in | humidity % | barometer mb |
| 20260504141001 | 65 | 360 | 0.0 | 1.7 | 0.00 | 0.00 | 0.00 | 49 | 1013.9 |
| 20260504130459 | 61 | 360 | 0.9 | 2.6 | 0.00 | 0.00 | 0.00 | 51 | 1014.1 |
| 20260504110459 | 44 | 360 | 0.0 | 0.0 | 0.00 | 0.00 | 0.00 | 83 | 1014.6 |
| 20260504081458 | 0 | 0.0 | 0.0 | 0.00 | 0.00 | 0.00 | 1014.7 | ||
| 20260504080958 | 0 | 0.0 | 0.0 | 0.00 | 0.00 | 0.00 | 1014.7 | ||
| 20260504050458 | 42 | 360 | 0.0 | 0.0 | 0.00 | 0.00 | 0.00 | 76 | 1014.6 |
| 20260504050000 | 42 | 360 | 0.0 | 0.0 | 0.00 | 0.00 | 0.00 | 76 | 1014.6 |
| 20260504044500 | 42 | 360 | 0.0 | 0.0 | 0.00 | 0.00 | 0.00 | 76 | 1014.5 |
| 20260504043500 | 43 | 360 | 0.0 | 0.0 | 0.00 | 0.00 | 0.00 | 75 | 1014.6 |
| 20260504043001 | 43 | 360 | 0.0 | 0.0 | 0.00 | 0.00 | 0.00 | 76 | 1014.5 |
| 20260504042000 | 43 | 360 | 0.0 | 0.0 | 0.00 | 0.00 | 0.00 | 74 | 1014.5 |
| 20260504041500 | 43 | 360 | 0.0 | 0.0 | 0.00 | 0.00 | 0.00 | 76 | 1014.4 |
| 20260504041001 | 43 | 360 | 0.0 | 0.0 | 0.00 | 0.00 | 0.00 | 76 | 1014.4 |
| 20260504040500 | 43 | 360 | 0.0 | 0.0 | 0.00 | 0.00 | 0.00 | 76 | 1014.5 |
| 20260504040004 | 43 | 360 | 0.0 | 0.0 | 0.00 | 0.00 | 0.00 | 77 | 1014.4 |
| 20260504035500 | 43 | 360 | 0.0 | 0.0 | 0.00 | 0.00 | 0.00 | 76 | 1014.3 |
| 20260504035001 | 44 | 360 | 0.0 | 0.0 | 0.00 | 0.00 | 0.00 | 75 | 1014.3 |
| 20260504034001 | 44 | 360 | 0.0 | 0.0 | 0.00 | 0.00 | 0.00 | 74 | 1014.2 |
| 20260504033500 | 44 | 360 | 0.0 | 0.0 | 0.00 | 0.00 | 0.00 | 74 | 1014.1 |
| 20260504033001 | 44 | 360 | 0.0 | 0.0 | 0.00 | 0.00 | 0.00 | 74 | 1014.0 |
| 20260504032500 | 44 | 360 | 0.0 | 0.0 | 0.00 | 0.00 | 0.00 | 74 | 1014.0 |
| 20260504032001 | 44 | 360 | 0.0 | 0.0 | 0.00 | 0.00 | 0.00 | 72 | 1013.9 |
| 20260504031500 | 45 | 360 | 0.0 | 0.0 | 0.00 | 0.00 | 0.00 | 73 | 1014.0 |
| 20260504031000 | 45 | 360 | 0.0 | 0.0 | 0.00 | 0.00 | 0.00 | 72 | 1013.9 |
| 20260504030007 | 45 | 360 | 0.0 | 0.0 | 0.00 | 0.00 | 0.00 | 73 | 1013.9 |
| 20260504025500 | 45 | 360 | 0.0 | 0.0 | 0.00 | 0.00 | 0.00 | 71 | 1013.9 |
| 20260504025000 | 45 | 360 | 0.0 | 0.0 | 0.00 | 0.00 | 0.00 | 72 | 1014.0 |
| 20260504024500 | 45 | 360 | 0.0 | 0.0 | 0.00 | 0.00 | 0.00 | 70 | 1014.0 |
| 20260504024001 | 45 | 360 | 0.0 | 0.0 | 0.00 | 0.00 | 0.00 | 72 | 1013.9 |
| 20260504023500 | 45 | 360 | 0.0 | 0.0 | 0.00 | 0.00 | 0.00 | 72 | 1014.1 |
| 20260504022000 | 46 | 360 | 0.0 | 0.0 | 0.00 | 0.00 | 0.00 | 72 | 1014.1 |
| 20260504021001 | 46 | 360 | 0.0 | 0.0 | 0.00 | 0.00 | 0.00 | 69 | 1014.1 |
| 20260504020500 | 46 | 360 | 0.0 | 0.0 | 0.00 | 0.00 | 0.00 | 69 | 1014.0 |
| 20260504015001 | 47 | 360 | 0.0 | 0.0 | 0.00 | 0.00 | 0.00 | 69 | 1013.9 |
| 20260504014500 | 47 | 360 | 0.0 | 0.0 | 0.00 | 0.00 | 0.00 | 67 | 1013.9 |
| 20260504014002 | 48 | 360 | 0.0 | 0.0 | 0.00 | 0.00 | 0.00 | 66 | 1013.9 |
| 20260504013500 | 48 | 360 | 0.0 | 0.0 | 0.00 | 0.00 | 0.00 | 66 | 1013.9 |
| 20260504013001 | 48 | 360 | 0.0 | 0.0 | 0.00 | 0.00 | 0.00 | 66 | 1013.8 |
| 20260504012500 | 49 | 360 | 0.0 | 0.0 | 0.00 | 0.00 | 0.00 | 65 | 1013.8 |
| 20260504012001 | 49 | 360 | 0.0 | 0.0 | 0.00 | 0.00 | 0.00 | 65 | 1013.7 |
| 20260504011500 | 49 | 360 | 0.0 | 0.0 | 0.00 | 0.00 | 0.00 | 65 | 1013.6 |
| 20260504010501 | 50 | 360 | 0.0 | 0.0 | 0.00 | 0.00 | 0.00 | 64 | 1013.6 |
| 20260504010004 | 50 | 360 | 0.0 | 0.0 | 0.00 | 0.00 | 0.00 | 60 | 1013.7 |
| 20260504005500 | 51 | 360 | 0.0 | 0.0 | 0.00 | 0.00 | 0.00 | 60 | 1013.6 |
| 20260504005001 | 51 | 360 | 0.0 | 0.0 | 0.00 | 0.00 | 0.00 | 60 | 1013.5 |
| 20260504004500 | 52 | 360 | 0.0 | 0.0 | 0.00 | 0.00 | 0.00 | 59 | 1013.5 |
| 20260504004000 | 52 | 360 | 0.0 | 0.0 | 0.00 | 0.00 | 0.00 | 58 | 1013.4 |
| 20260504003500 | 52 | 360 | 0.0 | 0.0 | 0.00 | 0.00 | 0.00 | 55 | 1013.3 |
| 20260504002500 | 53 | 360 | 0.0 | 0.0 | 0.00 | 0.00 | 0.00 | 55 | 1013.0 |
| 20260504002001 | 53 | 360 | 0.0 | 0.0 | 0.00 | 0.00 | 0.00 | 53 | 1013.0 |
| 20260504001500 | 54 | 360 | 0.0 | 1.7 | 0.00 | 0.00 | 0.00 | 50 | 1012.9 |
| 20260504001001 | 54 | 360 | 0.0 | 1.7 | 0.00 | 0.00 | 0.00 | 49 | 1013.0 |
| 20260504000500 | 54 | 360 | 0.0 | 0.0 | 0.00 | 0.00 | 0.00 | 48 | 1012.8 |
| 20260504000003 | 55 | 360 | 0.0 | 1.7 | 0.00 | 0.00 | 0.00 | 48 | 1012.9 |
| 20260503234501 | 55 | 360 | 0.0 | 1.7 | 0.00 | 0.00 | 0.00 | 47 | 1012.8 |
| 20260503233500 | 56 | 360 | 0.0 | 0.9 | 0.00 | 0.00 | 0.00 | 46 | 1012.8 |
| 20260503233001 | 56 | 360 | 0.0 | 1.7 | 0.00 | 0.00 | 0.00 | 46 | 1012.7 |
| 20260503232001 | 57 | 360 | 0.0 | 1.7 | 0.00 | 0.00 | 0.00 | 46 | 1012.8 |
| 20260503231500 | 57 | 360 | 0.0 | 3.5 | 0.00 | 0.00 | 0.00 | 44 | 1012.7 |
| 20260503230500 | 58 | 360 | 0.0 | 1.7 | 0.00 | 0.00 | 0.00 | 43 | 1012.6 |
| 20260503230004 | 58 | 360 | 0.0 | 3.5 | 0.00 | 0.00 | 0.00 | 43 | 1012.6 |
| 20260503225500 | 58 | 360 | 0.0 | 3.5 | 0.00 | 0.00 | 0.00 | 43 | 1012.7 |
| 20260503225001 | 59 | 360 | 0.0 | 2.6 | 0.00 | 0.00 | 0.00 | 44 | 1012.6 |
| 20260503224500 | 59 | 360 | 0.0 | 2.6 | 0.00 | 0.00 | 0.00 | 43 | 1012.6 |
| 20260503224001 | 59 | 360 | 0.0 | 1.7 | 0.00 | 0.00 | 0.00 | 42 | 1012.6 |
| 20260503223500 | 59 | 360 | 0.0 | 3.5 | 0.00 | 0.00 | 0.00 | 44 | 1012.5 |
| 20260503222500 | 59 | 360 | 0.0 | 2.6 | 0.00 | 0.00 | 0.00 | 41 | 1012.7 |
| 20260503222001 | 59 | 360 | 0.0 | 5.2 | 0.00 | 0.00 | 0.00 | 44 | 1012.5 |
| 20260503221001 | 60 | 360 | 1.7 | 5.2 | 0.00 | 0.00 | 0.00 | 40 | 1012.6 |
| 20260503220500 | 59 | 360 | 0.9 | 4.3 | 0.00 | 0.00 | 0.00 | 40 | 1012.6 |
| 20260503220005 | 60 | 360 | 0.0 | 2.6 | 0.00 | 0.00 | 0.00 | 41 | 1012.6 |
| 20260503215500 | 60 | 360 | 0.9 | 4.3 | 0.00 | 0.00 | 0.00 | 42 | 1012.6 |
| 20260503215001 | 60 | 360 | 0.0 | 4.3 | 0.00 | 0.00 | 0.00 | 41 | 1012.6 |
| 20260503214500 | 60 | 360 | 0.0 | 4.3 | 0.00 | 0.00 | 0.00 | 46 | 1012.5 |
| 20260503214001 | 60 | 360 | 0.0 | 3.5 | 0.00 | 0.00 | 0.00 | 43 | 1012.4 |
| 20260503213500 | 59 | 360 | 1.7 | 3.5 | 0.00 | 0.00 | 0.00 | 43 | 1012.5 |
| 20260503213000 | 59 | 360 | 0.0 | 4.3 | 0.00 | 0.00 | 0.00 | 41 | 1012.5 |
| 20260503212501 | 60 | 360 | 0.9 | 4.3 | 0.00 | 0.00 | 0.00 | 41 | 1012.5 |
| 20260503212000 | 59 | 360 | 0.0 | 4.3 | 0.00 | 0.00 | 0.00 | 44 | 1012.4 |
| 20260503211000 | 60 | 360 | 0.0 | 4.3 | 0.00 | 0.00 | 0.00 | 42 | 1012.5 |
| 20260503210500 | 60 | 360 | 1.7 | 7.8 | 0.00 | 0.00 | 0.00 | 41 | 1012.5 |
| 20260503210005 | 60 | 360 | 1.7 | 7.8 | 0.00 | 0.00 | 0.00 | 41 | 1012.6 |
| 20260503205500 | 59 | 360 | 1.7 | 3.5 | 0.00 | 0.00 | 0.00 | 40 | 1012.3 |
| 20260503205001 | 59 | 360 | 0.9 | 3.5 | 0.00 | 0.00 | 0.00 | 40 | 1012.4 |
| 20260503203000 | 59 | 360 | 0.0 | 4.3 | 0.00 | 0.00 | 0.00 | 42 | 1012.5 |
| 20260503202500 | 59 | 360 | 0.0 | 3.5 | 0.00 | 0.00 | 0.00 | 40 | 1012.4 |
| 20260503201500 | 59 | 360 | 0.9 | 4.3 | 0.00 | 0.00 | 0.00 | 37 | 1012.6 |
| 20260503201000 | 59 | 360 | 0.0 | 5.2 | 0.00 | 0.00 | 0.00 | 42 | 1012.6 |
| 20260503200500 | 59 | 360 | 2.6 | 5.2 | 0.00 | 0.00 | 0.00 | 41 | 1012.6 |
| 20260503200004 | 59 | 360 | 0.9 | 5.2 | 0.00 | 0.00 | 0.00 | 41 | 1012.7 |
| 20260503194500 | 59 | 360 | 0.9 | 5.2 | 0.00 | 0.00 | 0.00 | 39 | 1012.8 |
| 20260503193500 | 59 | 360 | 3.5 | 4.3 | 0.00 | 0.00 | 0.00 | 38 | 1013.1 |
| 20260503193000 | 59 | 360 | 0.9 | 9.6 | 0.00 | 0.00 | 0.00 | 42 | 1013.0 |
| 20260503192500 | 58 | 360 | 1.7 | 9.6 | 0.00 | 0.00 | 0.00 | 43 | 1013.0 |
| 20260503192000 | 58 | 360 | 1.7 | 8.7 | 0.00 | 0.00 | 0.00 | 39 | 1013.1 |
| 20260503191001 | 58 | 360 | 0.9 | 5.2 | 0.00 | 0.00 | 0.00 | 45 | 1013.2 |
| 20260503190500 | 58 | 360 | 0.9 | 5.2 | 0.00 | 0.00 | 0.00 | 38 | 1013.4 |
| 20260503190002 | 58 | 360 | 0.9 | 3.5 | 0.00 | 0.00 | 0.00 | 46 | 1013.4 |
| 20260503185458 | 58 | 360 | 0.9 | 7.8 | 0.00 | 0.00 | 0.00 | 41 | 1013.3 |
| 20260503185000 | 58 | 360 | 1.7 | 7.8 | 0.00 | 0.00 | 0.00 | 45 | 1013.3 |
| 20260503183959 | 58 | 360 | 0.9 | 3.5 | 0.00 | 0.00 | 0.00 | 44 | 1013.6 |
| 20260503183458 | 57 | 360 | 1.7 | 4.3 | 0.00 | 0.00 | 0.00 | 46 | 1013.7 |
| 20260503182959 | 58 | 360 | 0.9 | 5.2 | 0.00 | 0.00 | 0.00 | 38 | 1013.9 |
| 20260503182459 | 58 | 360 | 0.9 | 7.8 | 0.00 | 0.00 | 0.00 | 40 | 1013.6 |
| 20260503181959 | 58 | 360 | 0.9 | 7.8 | 0.00 | 0.00 | 0.00 | 44 | 1013.8 |
| 20260503181459 | 58 | 360 | 0.9 | 7.8 | 0.00 | 0.00 | 0.00 | 43 | 1013.7 |
| 20260503180959 | 58 | 360 | 0.0 | 5.2 | 0.00 | 0.00 | 0.00 | 45 | 1013.8 |
| 20260503180001 | 58 | 360 | 0.9 | 2.6 | 0.00 | 0.00 | 0.00 | 42 | 1013.8 |
| 20260503175459 | 58 | 360 | 0.0 | 4.3 | 0.00 | 0.00 | 0.00 | 42 | 1013.8 |
| 20260503174959 | 57 | 360 | 0.0 | 4.3 | 0.00 | 0.00 | 0.00 | 44 | 1013.9 |
| 20260503174459 | 56 | 360 | 0.0 | 5.2 | 0.00 | 0.00 | 0.00 | 47 | 1014.0 |
| 20260503173959 | 56 | 360 | 0.9 | 5.2 | 0.00 | 0.00 | 0.00 | 39 | 1014.0 |
| 20260503173459 | 56 | 360 | 0.9 | 7.0 | 0.00 | 0.00 | 0.00 | 41 | 1014.1 |
| 20260503172959 | 56 | 360 | 0.9 | 7.0 | 0.00 | 0.00 | 0.00 | 39 | 1014.0 |
| 20260503172458 | 56 | 360 | 0.0 | 3.5 | 0.00 | 0.00 | 0.00 | 44 | 1014.2 |
| 20260503172000 | 55 | 360 | 0.0 | 4.3 | 0.00 | 0.00 | 0.00 | 45 | 1014.0 |
| 20260503171459 | 55 | 360 | 0.9 | 4.3 | 0.00 | 0.00 | 0.00 | 42 | 1014.2 |
| 20260503170959 | 54 | 360 | 0.0 | 8.7 | 0.00 | 0.00 | 0.00 | 49 | 1014.4 |
| 20260503170459 | 54 | 360 | 0.0 | 8.7 | 0.00 | 0.00 | 0.00 | 42 | 1014.3 |
| 20260503150959 | 53 | 360 | 0.0 | 7.0 | 0.00 | 0.00 | 0.00 | 54 | 1014.8 |
| 20260503150459 | 52 | 360 | 1.7 | 7.8 | 0.00 | 0.00 | 0.00 | 51 | 1014.9 |